Preview of NWS' New Version of Forecast
This preview is not operational and should not be used for support decisions.
Latest weather observations around

Caribou, Caribou Municipal Airport (KCAR)

Using English Units (Switch to International System of Units)
Date/ Time (EDT) Wind (mph) Vis. (mi) Weather Sky Cond. Temp (°F) Rel. Humidity Wind Chill (°F) Heat Index (°F) Pressure Precip. (in)
Air Dwpt 6 hour Altimeter (inHg) Sea level (inHg) 1 hr 3 hr 6 hr
Max Min
May 28 00:54 S 8 10 Clear CLR 51 36     56%     30.13 30.14      
May 27 22:54 S 10 10 Clear CLR 55 33     43%     30.15 30.16      
May 27 21:54 S 11 10 Clear CLR 57 31     37%     30.15 30.16      
May 27 20:54 S 8 10 Clear CLR 59 33     37%     30.15 30.16      
May 27 19:54 SSE 8 10 Clear CLR 61 39     44%     30.14 30.16      
May 27 18:54 SSE 9 10 Clear   63 39     41%     30.14 30.16      
May 27 17:54 S 11 10 Clear CLR 64 37     37%     30.15 30.17      
May 27 16:54 SSE 15 10 Clear CLR 65 38     37%     30.16 30.18      
May 27 15:54 SE 13 10 Clear CLR 66 37     34%     30.17 30.19      
May 27 14:54 SSE 13 10 Clear CLR 65 38     37%     30.2 30.21      
May 27 13:54 S 11 10 Clear CLR 64 37     37%     30.22 30.23      
May 27 12:54 SSE 11 10 Clear CLR 63 38     40%     30.23 30.24      
May 27 11:54 SE 11 10 Clear CLR 60 37     42%     30.25 30.26      
May 27 10:54 SSE 11 10 Clear CLR 58 37     46%     30.26 30.28      
May 27 09:54 S 11 10 Clear CLR 55 37     51%     30.27 30.29      
May 27 08:54 S 8 10 Clear CLR 52 38     59%     30.27 30.29      
May 27 07:54 S 5 10 Clear CLR 48 38     68% 46   30.27 30.29      
May 27 06:54 Calm 10 Clear CLR 44 34     67%     30.26 30.27      
May 27 05:54 Calm 10 Clear CLR 40 32     73%     30.25 30.27      
May 27 04:54 NNE 3 10 Clear CLR 38 31     76% 36   30.23 30.25      
May 27 03:54 NNE 5 10 Clear CLR 39 31     72% 36   30.21 30.23      
May 27 02:54 NE 3 10 Clear CLR 41 30     65% 39   30.19 30.2      
May 27 01:54 NE 5 10 Clear CLR 43 30     60% 40   30.17 30.18      
May 27 00:54 NNE 5 10 Clear CLR 44 30     58% 41   30.15 30.16      
May 26 23:54 Calm 10 Clear CLR 45 31     58%     30.13 30.14      
May 26 22:54 N 7 10 Clear CLR 47 30     52% 44   30.1 30.12      
May 26 21:54 N 6 10 Clear CLR 49 29     46% 46   30.08 30.09      
May 26 20:54 N 6 10 Clear CLR 52 28     39%     30.05 30.06      
May 26 19:54 N 8 10 Clear CLR 56 27     33%     30.01 30.02      
May 26 18:54 NNE 14 10 Clear CLR 61 27     27%     29.97 29.98      
May 26 17:54 NNE 14 10 Clear CLR 63 28     27%     29.93 29.94      
May 26 16:54 N 14 10 Clear CLR 65 28     25%     29.89 29.9      
May 26 15:54 N 11 10 Clear CLR 65 30     27%     29.86 29.87      
May 26 14:54 NNW 14 10 Clear CLR 66 35     32%     29.83 29.83      
May 26 13:54 NNW 14 10 Clear CLR 65 35     33%     29.8 29.81      
May 26 12:54 NNW 21 10 Clear and Windy CLR 64 34     33%     29.77 29.78      
May 26 11:54 NW 13 10 Clear CLR 63 39     41%     29.75 29.76      
May 26 10:54 N 13 10 Clear CLR 64 41     43%     29.74 29.75      
May 26 09:54 NE 9 10 Mostly Clear FEW037 61 46     58%     29.72 29.73      
May 26 08:54 NNE 9 10 Clear CLR 58 47     67%     29.7 29.71      
May 26 07:54 N 7 10 Cloudy OVC095 53 46     77%     29.68 29.69     0
May 26 06:54 NNE 6 10 Cloudy OVC095 52 47     83%     29.64 29.65      
May 26 05:54 NNE 7 10 Mostly Cloudy SCT090 BKN110 52 47     83%     29.62 29.62      
May 26 04:54 NNE 10 10 Cloudy OVC095 54 48     80%     29.59 29.59   0  
May 26 03:54 N 9 10 Cloudy FEW007 OVC085 59 54     83%     29.55 29.56 0    
May 26 03:40 NNW 6 3 Fog/Mist FEW002 BKN007 OVC085 59 57     93%     29.55   0    
May 26 03:30 NW 3 1.75 Light Rain and Fog/Mist FEW002 BKN006 OVC080 59 57     93%     29.55   0    
May 26 03:22 Calm 3 Fog/Mist BKN006 OVC085 59 58     96%     29.55   0    
May 26 02:54 N 6 4 Fog/Mist FEW009 OVC080 59 57     93%     29.55 29.56      
May 26 02:19 N 6 3 Fog/Mist BKN080 BKN100 OVC110 59 57     93%     29.55        
May 26 02:17 N 6 1.75 Fog/Mist BKN080 BKN100 OVC110 59 57     93%     29.55        
May 26 02:13 N 5 0.75 Fog/Mist BKN085 OVC110 60 58     93%     29.55        
May 26 02:04 Calm 1.25 Fog/Mist BKN090 OVC120 59 57     93%     29.54        
May 26 01:54 S 3 2.5 Fog/Mist BKN090 OVC110 59 58     96%     29.54 29.54     0
May 26 01:44 Calm 2 Fog/Mist BKN085 OVC100 60 58     93%     29.55        
May 26 00:54 Calm 4 Fog/Mist OVC085 60 58     93%     29.55 29.56      
May 25 23:54 Calm 6 Fog/Mist BKN080 BKN095 OVC120 60 58     93%     29.55 29.56      
May 25 22:54 Calm 9 Mostly Cloudy SCT080 BKN095 BKN120 61 59     93%     29.55 29.56   0  
May 25 21:54 S 3 10 Mostly Cloudy BKN065 63 59     87%     29.56 29.57 0    
May 25 20:54 WSW 7 8 Light Rain OVC060 65 57     76%     29.56 29.57 0    
May 25 19:54 SW 3 10 Mostly Cloudy SCT065 BKN090 BKN100 67 57     71%     29.55 29.56 0   0
May 25 18:54 Calm 10 Light Rain FEW041 SCT070 BKN090 70 58     66%     29.54 29.54 0    
May 25 17:54 S 5 10 Mostly Clear FEW095 71 56     59%   71 29.51 29.52      
May 25 16:54 SSE 6 10 Clear CLR 70 57     63%     29.5 29.51      
May 25 15:54 Calm 10 Mostly Cloudy BKN100 68 56     65%     29.52 29.52      
May 25 14:54 Calm 10 Partly Cloudy SCT100 65 55     70%     29.53 29.54      
May 25 13:54 Calm 10 Mostly Clear FEW110 62 55     78%     29.55 29.56 0   0
May 25 12:54 Calm 10 Light Rain SCT041 BKN080 OVC100 59 53     81%     29.57 29.58 0    
May 25 11:54 Calm 10 Light Rain FEW034 SCT095 BKN110 57 53     87%     29.58 29.59 0    
May 25 11:21 S 3 10 Mostly Cloudy FEW070 BKN100 56 51     84%     29.58   0    
May 25 11:06 Calm 10 Mostly Cloudy FEW029 BKN100 BKN120 55 51     86%     29.6   0    
May 25 10:54 S 3 10 Light Rain FEW022 SCT037 BKN090 53 50     89%     29.58 29.59 0 0  
May 25 09:54 SSW 3 9 Light Rain SCT004 BKN080 OVC095 50 48     93%     29.61 29.62 0    
May 25 09:51 S 6 7 Light Rain SCT004 BKN055 OVC095 50 48     94%     29.61   0    
May 25 08:54 SSW 6 8 Light Rain BKN047 OVC060 49 47     93% 46   29.65 29.66 0    
May 25 08:03 SSW 8 7 Light Rain SCT004 BKN048 OVC095 49 46     90% 45   29.64   0    
May 25 07:54 WSW 3 10 Light Rain BKN004 BKN048 OVC090 49 46     90% 48   29.67 29.68 0   0
May 25 07:37 S 8 10 Light Rain BKN004 BKN048 OVC090 49 46     90% 45   29.65   0    
May 25 06:54 S 6 7 Light Rain BKN005 BKN070 OVC095 49 46     90% 46   29.67 29.69 0    
May 25 06:44 S 7 10 Cloudy BKN005 OVC075 49 46     90% 46   29.67   0    
May 25 05:54 SSW 7 10 Cloudy FEW006 OVC100 48 46     93% 45   29.67 29.68 0    
May 25 05:35 S 8 10 Cloudy FEW006 OVC100 48 46     93% 44   29.67   0    
May 25 04:54 S 8 10 Light Rain BKN055 OVC070 49 46     90% 45   29.7 29.72 0 0  
May 25 04:29 S 8 10 Light Rain FEW005 OVC080 49 46     90% 45   29.7   0    
May 25 03:54 S 7 10 Light Rain OVC080 49 46     90% 46   29.72 29.73 0    
May 25 02:54 S 9 10 Light Rain SCT065 OVC080 49 45     86% 45   29.72 29.74 0    
May 25 01:54 Calm 10 Light Rain BKN070 OVC085 49 44     83%     29.78 29.8 0   0
May 14 17:54 WNW 13 10 Partly Cloudy SCT100 77 36     23%   75 29.66 29.67      
May 13 03:54 WSW 5 10 Mostly Clear FEW100 41 22     46% 38   30.08 30.1      
May 12 09:54 WSW 9 10 Clear CLR 47 17     30% 43   30.13 30.16      
May 12 02:54 W 6 10 Clear CLR 30 19     63% 24   30.1 30.13      
May 11 23:54 NNW 8 10 Clear CLR 34 20     56% 27   30.09 30.11      
Jun 11 17:54 W 15 10 Clear   87 57     36%   86 29.59 29.59      
Jun 11 11:54 SW 20 10 Clear and Windy CLR 85 60     43%   85 29.55 29.55      
Jun 08 22:54 SSW 7 10 Clear CLR 68 49     50%     29.75 29.75      
Jun 07 09:54 WSW 7 10 Clear CLR 65 43     45%     29.89 29.89      
Jun 06 03:54 NE 6 10 Clear CLR 43 39     86% 39   30.08 30.09